星链-3935 (STARLINK-3935 )

导读 | 豆包AI

STARLINK-3935是美国SpaceX公司制造的星链系列通信卫星,于2022年5月13日由猎鹰9号火箭从美国空军西部试验靶场发射升空,进入近地轨道运行。卫星湿重297千克,运行轨道高度约540公里,倾角53.22度,属于星链第一代V1.5批次卫星,承担全球商业互联网通信服务,为偏远地区提供高速低延迟宽带接入。

Basic Information
目录编号:
52549
目录名称:
STARLINK-3935
国际标识:
2022-051S
轨道中心:
EARTH
卫星名称:
星链-3935
卫星全名:
星链-3935 (STARLINK-3935 )
卫星状态:
在轨 (已飞行1402 天)
发射日期:
2022-05-13 UTC
国别 :
美国 (US)
星等 :
--
Orbit Information
数据来源 国际轨道数据 AOE轨道数据
星历时间 2026-03-14T20:17:59+0800
12小时前
查看轨道信息
2026-03-12T03:00:00+0800
3天前
查看轨道信息
半长轴 6917.881km 6917.824km
偏心率 0.0001409 0.0001379
轨道倾角 53.217° 53.215°
近地点辐角 87.054° 78.361°
升交点赤经 107.472° 119.691°
平近点角 273.061° 254.696°
近地点 538.769km 538.733km
远地点 540.719km 540.641km
周期 95.438分钟 95.436分钟
每日圈数 15.0884 15.088586
Detailed Information
固有亮度:
5
最大亮度:
2.5
卫星平台:
Starlink v1.5
覆盖范围:
全球
运营商:
太空探索技术公司
运营商所在国:
美国
制造商(研发单位):
太空探索技术公司
制造商所在国:
美国
使用方式:
暂无
Satellite Introduction
星链(Starlink)计划是由太空探索技术公司(SpaceX)提出的一个巨型低轨卫星互联网星座项目,计划在2019年至2024年间在太空搭建由约1.2万颗卫星组成的“星链”网络,其中1584颗将部署在地球上空550千米处的近地轨道,并从2020年开始工作。该卫星仍在工作。
2D Orbit Map
3D Orbit Map
Orbit Altitude Analysis Chart
Orbit Inclination Analysis Chart
Orbit Comprehensive Analysis Chart
View Comprehensive Chart